LZB8794 LTBS-LBSF

Flight info

Callsign LZB8794
Flight time 1h 16m
Altitude 36000
Route KEKIK UN127 ULKAN UZ713 KUMAN UN135 IMR UN127 LMO UN128 PEREN UL863 EVIVI Y94 VANET DCT 422253N0234522E 422553N0235753E 422804N0240710E 423256N0240747E 423713N0235803E 424049N0234932E DCT 424118N0233525E
Aircraft A320/M-SDE3FGHIRWY/LB1

Departure

Time 2026-05-04 18:31
Airport Dalaman International Airport (LTBS)

Arrival

Time 2026-05-04 19:47
Airport Sofia Airport (LBSF)
Time Latitude Longitude Altitude Speed Heading
2026-05-04 18:02 36.71650 28.79030 24 ft 0 kts 104°
2026-05-04 18:21 36.71653 28.79016 24 ft 2 kts 104°
2026-05-04 18:21 36.71656 28.78998 24 ft 2 kts 105°
2026-05-04 18:21 36.71660 28.78980 24 ft 2 kts 106°
2026-05-04 18:21 36.71668 28.78964 24 ft 2 kts 137°
2026-05-04 18:22 36.71680 28.78954 24 ft 2 kts 162°
2026-05-04 18:22 36.71695 28.78951 24 ft 2 kts 187°
2026-05-04 18:22 36.71701 28.78952 24 ft 1 kts 197°
2026-05-04 18:22 36.71706 28.78954 24 ft 0 kts 196°
2026-05-04 18:25 36.71704 28.78954 24 ft 0 kts 196°
2026-05-04 18:25 36.71697 28.78951 24 ft 2 kts 196°
2026-05-04 18:25 36.71673 28.78943 24 ft 4 kts 195°
2026-05-04 18:25 36.71634 28.78930 24 ft 6 kts 194°
2026-05-04 18:26 36.71579 28.78914 23 ft 9 kts 194°
2026-05-04 18:26 36.71512 28.78890 23 ft 11 kts 195°
2026-05-04 18:26 36.71431 28.78862 22 ft 12 kts 196°
2026-05-04 18:26 36.71358 28.78890 21 ft 13 kts 115°
2026-05-04 18:27 36.71328 28.78999 21 ft 13 kts 117°
2026-05-04 18:27 36.71239 28.79009 20 ft 14 kts 195°
2026-05-04 18:27 36.71135 28.78974 19 ft 16 kts 196°
2026-05-04 18:27 36.71016 28.78934 18 ft 18 kts 195°
2026-05-04 18:28 36.70890 28.78890 18 ft 19 kts 195°
2026-05-04 18:28 36.70758 28.78845 17 ft 20 kts 195°
2026-05-04 18:28 36.70628 28.78801 17 ft 19 kts 197°
2026-05-04 18:28 36.70496 28.78756 16 ft 19 kts 195°
2026-05-04 18:29 36.70365 28.78710 16 ft 19 kts 198°
2026-05-04 18:29 36.70236 28.78666 16 ft 19 kts 196°
2026-05-04 18:29 36.70109 28.78631 16 ft 18 kts 174°
2026-05-04 18:29 36.70056 28.78744 16 ft 16 kts 82°
2026-05-04 18:30 36.70277 28.78894 16 ft 47 kts 15°
2026-05-04 18:30 36.70829 28.79078 17 ft 114 kts 15°
2026-05-04 18:30 36.71775 28.79403 101 ft 159 kts 14°
2026-05-04 18:31 36.72817 28.79761 810 ft 153 kts 14°
2026-05-04 18:31 36.73839 28.80062 1516 ft 154 kts 10°
2026-05-04 18:31 36.74897 28.80292 2113 ft 162 kts 10°
2026-05-04 18:31 36.76054 28.80547 2593 ft 177 kts 10°
2026-05-04 18:32 36.77308 28.80820 3047 ft 191 kts
2026-05-04 18:32 36.78619 28.80518 3667 ft 198 kts 335°
2026-05-04 18:32 36.79689 28.79448 4353 ft 204 kts 322°
2026-05-04 18:32 36.80762 28.78204 4867 ft 218 kts 322°
2026-05-04 18:33 36.81893 28.76947 5573 ft 222 kts 326°
2026-05-04 18:33 36.83173 28.75756 6095 ft 237 kts 328°
2026-05-04 18:33 36.84335 28.74239 6794 ft 254 kts 302°
2026-05-04 18:33 36.84745 28.72066 7540 ft 274 kts 274°
2026-05-04 18:34 36.84189 28.69751 8359 ft 291 kts 247°
2026-05-04 18:34 36.83173 28.67559 9180 ft 290 kts 255°
2026-05-04 18:34 36.82877 28.65210 9977 ft 272 kts 285°
2026-05-04 18:34 36.83471 28.63071 10877 ft 258 kts 308°
2026-05-04 18:35 36.84659 28.61464 11646 ft 255 kts 323°
2026-05-04 18:35 36.86042 28.60056 12359 ft 260 kts 322°
2026-05-04 18:35 36.87429 28.58607 13066 ft 264 kts 321°
2026-05-04 18:35 36.88831 28.57122 13792 ft 267 kts 321°
2026-05-04 18:36 36.90237 28.55628 14509 ft 270 kts 321°
2026-05-04 18:36 36.91664 28.54108 15196 ft 273 kts 321°
2026-05-04 18:36 36.93109 28.52567 15850 ft 277 kts 321°
2026-05-04 18:36 36.94579 28.50999 16491 ft 281 kts 321°
2026-05-04 18:37 36.96071 28.49406 17151 ft 284 kts 321°
2026-05-04 18:37 36.97570 28.47804 17792 ft 287 kts 321°
2026-05-04 18:37 36.99088 28.46180 18432 ft 290 kts 321°
2026-05-04 18:37 37.00627 28.44531 19027 ft 294 kts 321°
2026-05-04 18:38 37.02171 28.42875 19599 ft 298 kts 322°
2026-05-04 18:38 37.03747 28.41183 20189 ft 301 kts 322°
2026-05-04 18:38 37.05344 28.39475 20737 ft 305 kts 322°
2026-05-04 18:38 37.06979 28.37723 21291 ft 309 kts 322°
2026-05-04 18:39 37.08601 28.35981 21800 ft 314 kts 322°
2026-05-04 18:39 37.10288 28.34152 22051 ft 326 kts 322°
2026-05-04 18:39 37.12044 28.32248 22292 ft 339 kts 322°
2026-05-04 18:39 37.13857 28.30284 22518 ft 351 kts 322°
2026-05-04 18:40 37.15735 28.28248 22735 ft 363 kts 322°
2026-05-04 18:40 37.17672 28.26162 22941 ft 375 kts 322°
2026-05-04 18:40 37.19676 28.24006 23139 ft 386 kts 322°
2026-05-04 18:40 37.21728 28.21793 23349 ft 395 kts 322°
2026-05-04 18:41 37.23839 28.19514 23714 ft 401 kts 322°
2026-05-04 18:41 37.25944 28.17239 24130 ft 404 kts 322°
2026-05-04 18:41 37.28123 28.14994 24535 ft 406 kts 327°
2026-05-04 18:41 37.30504 28.13082 24928 ft 407 kts 333°
2026-05-04 18:42 37.33024 28.11577 25334 ft 408 kts 340°
2026-05-04 18:42 37.35715 28.10388 25729 ft 410 kts 343°
2026-05-04 18:42 37.38419 28.09295 26086 ft 413 kts 344°
2026-05-04 18:42 37.41168 28.08203 26467 ft 415 kts 344°
2026-05-04 18:43 37.43931 28.07105 26837 ft 417 kts 344°
2026-05-04 18:43 37.46711 28.06001 27183 ft 420 kts 344°
2026-05-04 18:43 37.49489 28.04894 27506 ft 422 kts 344°
2026-05-04 18:43 37.52308 28.03767 27822 ft 425 kts 344°
2026-05-04 18:44 37.55129 28.02639 28117 ft 427 kts 345°
2026-05-04 18:44 37.57046 28.01871 28328 ft 428 kts 344°
2026-05-04 18:44 37.60799 28.00366 28730 ft 430 kts 345°
2026-05-04 18:44 37.63670 27.99214 29130 ft 429 kts 345°
2026-05-04 18:45 37.66509 27.98074 29546 ft 428 kts 345°
2026-05-04 18:45 37.69314 27.96946 29937 ft 427 kts 345°
2026-05-04 18:45 37.72160 27.95803 30294 ft 427 kts 345°
2026-05-04 18:45 37.74977 27.94668 30620 ft 427 kts 345°
2026-05-04 18:46 37.77792 27.93536 30983 ft 426 kts 345°
2026-05-04 18:46 37.80621 27.92399 31353 ft 424 kts 345°
2026-05-04 18:46 37.83424 27.91268 31702 ft 423 kts 345°
2026-05-04 18:46 37.86216 27.90141 32042 ft 422 kts 345°
2026-05-04 18:47 37.89020 27.89009 32355 ft 421 kts 345°
2026-05-04 18:47 37.91791 27.87887 32651 ft 421 kts 345°
2026-05-04 18:47 37.94583 27.86724 32928 ft 421 kts 341°
2026-05-04 18:47 37.97255 27.85192 33207 ft 423 kts 334°
2026-05-04 18:48 37.99739 27.83230 33498 ft 425 kts 327°
2026-05-04 18:48 38.02040 27.80836 33782 ft 427 kts 320°
2026-05-04 18:48 38.04061 27.78094 34158 ft 427 kts 313°
2026-05-04 18:48 38.05783 27.75043 34569 ft 426 kts 305°
2026-05-04 18:49 38.07174 27.71759 34792 ft 426 kts 299°
2026-05-04 18:49 38.08396 27.68347 34963 ft 425 kts 298°
2026-05-04 18:49 38.09585 27.64920 35096 ft 426 kts 297°
2026-05-04 18:49 38.10776 27.61484 35221 ft 426 kts 297°
2026-05-04 18:50 38.11984 27.58100 35336 ft 425 kts 301°
2026-05-04 18:50 38.15352 27.51970 35492 ft 425 kts 312°
2026-05-04 18:51 38.19098 27.46147 35657 ft 428 kts 312°
2026-05-04 18:51 38.20964 27.43234 35762 ft 429 kts 312°
2026-05-04 18:51 38.22848 27.40277 35866 ft 429 kts 311°
2026-05-04 18:51 38.24725 27.37322 35986 ft 430 kts 311°
2026-05-04 18:52 38.26614 27.34338 36050 ft 431 kts 311°
2026-05-04 18:52 38.30344 27.28404 36064 ft 431 kts 311°
2026-05-04 18:53 38.34066 27.22475 36076 ft 431 kts 311°
2026-05-04 18:53 38.37812 27.16510 36078 ft 431 kts 311°
2026-05-04 18:54 38.41536 27.10570 36074 ft 431 kts 311°
2026-05-04 18:54 38.45290 27.04579 36077 ft 431 kts 311°
2026-05-04 18:55 38.49003 26.98637 36070 ft 431 kts 311°
2026-05-04 18:55 38.54593 26.89676 36075 ft 431 kts 311°
2026-05-04 18:56 38.58327 26.83678 36081 ft 431 kts 311°
2026-05-04 18:56 38.62042 26.77696 36083 ft 430 kts 311°
2026-05-04 18:57 38.65736 26.71738 36087 ft 430 kts 311°
2026-05-04 18:57 38.69437 26.65759 36083 ft 430 kts 311°
2026-05-04 18:58 38.73161 26.59728 36081 ft 430 kts 311°
2026-05-04 18:58 38.76848 26.53747 36084 ft 430 kts 311°
2026-05-04 18:59 38.80552 26.47770 36085 ft 429 kts 313°
2026-05-04 18:59 38.84633 26.42197 36084 ft 429 kts 319°
2026-05-04 19:00 38.89100 26.37201 36093 ft 429 kts 323°
2026-05-04 19:00 38.93681 26.32337 36094 ft 429 kts 322°
2026-05-04 19:01 38.98283 26.27427 36088 ft 429 kts 322°
2026-05-04 19:01 39.02870 26.22536 36103 ft 429 kts 322°
2026-05-04 19:02 39.07444 26.17654 36089 ft 429 kts 322°
2026-05-04 19:02 39.12024 26.12768 36110 ft 429 kts 322°
2026-05-04 19:03 39.16630 26.07862 36110 ft 429 kts 322°
2026-05-04 19:03 39.21189 26.02979 36106 ft 428 kts 322°
2026-05-04 19:04 39.25753 25.98076 36092 ft 428 kts 322°
2026-05-04 19:04 39.30317 25.93147 36101 ft 428 kts 322°
2026-05-04 19:05 39.34822 25.88136 36104 ft 428 kts 321°
2026-05-04 19:05 39.39307 25.83124 36095 ft 428 kts 321°
2026-05-04 19:06 39.43796 25.78103 36094 ft 428 kts 321°
2026-05-04 19:06 39.48302 25.73060 36089 ft 428 kts 321°
2026-05-04 19:07 39.52702 25.68128 36099 ft 428 kts 321°
2026-05-04 19:07 39.57200 25.63077 36095 ft 428 kts 321°
2026-05-04 19:08 39.61699 25.58015 36088 ft 427 kts 321°
2026-05-04 19:08 39.66148 25.52999 36095 ft 427 kts 321°
2026-05-04 19:09 39.70629 25.47940 36093 ft 427 kts 321°
2026-05-04 19:09 39.75101 25.42880 36100 ft 427 kts 321°
2026-05-04 19:10 39.79579 25.37804 36087 ft 427 kts 321°
2026-05-04 19:10 39.84045 25.32723 36083 ft 427 kts 321°
2026-05-04 19:11 39.88477 25.27596 36107 ft 428 kts 319°
2026-05-04 19:11 39.92791 25.22241 36097 ft 429 kts 320°
2026-05-04 19:12 39.99483 25.14538 36087 ft 428 kts 320°
2026-05-04 19:13 40.03930 25.09380 36083 ft 428 kts 320°
2026-05-04 19:13 40.08343 25.04234 36081 ft 428 kts 320°
2026-05-04 19:14 40.12802 24.99033 36083 ft 429 kts 320°
2026-05-04 19:14 40.17256 24.93839 36083 ft 429 kts 320°
2026-05-04 19:15 40.21663 24.88672 36084 ft 429 kts 320°
2026-05-04 19:15 40.26104 24.83447 36086 ft 429 kts 320°
2026-05-04 19:16 40.30539 24.78217 36087 ft 429 kts 320°
2026-05-04 19:16 40.34965 24.72989 36086 ft 429 kts 320°
2026-05-04 19:17 40.39390 24.67750 36086 ft 428 kts 320°
2026-05-04 19:17 40.43782 24.62540 36086 ft 428 kts 320°
2026-05-04 19:18 40.48193 24.57298 36084 ft 428 kts 320°
2026-05-04 19:18 40.52600 24.52050 36088 ft 428 kts 320°
2026-05-04 19:19 40.57000 24.46803 36085 ft 429 kts 320°
2026-05-04 19:19 40.61402 24.41545 36081 ft 429 kts 320°
2026-05-04 19:20 40.65825 24.36247 36077 ft 429 kts 320°
2026-05-04 19:20 40.70205 24.30976 36082 ft 428 kts 319°
2026-05-04 19:21 40.74609 24.25660 36084 ft 429 kts 319°
2026-05-04 19:21 40.78999 24.20364 36078 ft 430 kts 319°
2026-05-04 19:22 40.83391 24.15070 36073 ft 428 kts 320°
2026-05-04 19:22 40.85744 24.12706 35883 ft 422 kts 329°
2026-05-04 19:22 40.88309 24.10857 35429 ft 419 kts 337°
2026-05-04 19:22 40.91002 24.09442 34882 ft 418 kts 340°
2026-05-04 19:23 40.93716 24.08137 34209 ft 418 kts 341°
2026-05-04 19:23 40.96429 24.06848 33446 ft 420 kts 341°
2026-05-04 19:23 40.99192 24.05528 32959 ft 419 kts 341°
2026-05-04 19:23 41.01930 24.04214 32678 ft 425 kts 341°
2026-05-04 19:24 41.04737 24.02859 32399 ft 428 kts 341°
2026-05-04 19:24 41.07544 24.01499 32123 ft 430 kts 341°
2026-05-04 19:24 41.10348 24.00136 31849 ft 431 kts 341°
2026-05-04 19:24 41.13172 23.98767 31576 ft 433 kts 341°
2026-05-04 19:25 41.16037 23.97376 31299 ft 434 kts 341°
2026-05-04 19:25 41.18855 23.96006 31034 ft 436 kts 341°
2026-05-04 19:25 41.21627 23.94655 30768 ft 437 kts 341°
2026-05-04 19:25 41.24479 23.93261 30496 ft 438 kts 341°
2026-05-04 19:26 41.27329 23.91866 30229 ft 439 kts 341°
2026-05-04 19:26 41.30192 23.90463 29962 ft 439 kts 341°
2026-05-04 19:26 41.33064 23.89054 29694 ft 440 kts 341°
2026-05-04 19:26 41.35926 23.87648 29428 ft 440 kts 341°
2026-05-04 19:27 41.38829 23.86220 29153 ft 440 kts 341°
2026-05-04 19:27 41.41691 23.84811 28890 ft 440 kts 341°
2026-05-04 19:27 41.44560 23.83397 28620 ft 440 kts 341°
2026-05-04 19:27 41.47449 23.81974 28350 ft 440 kts 341°
2026-05-04 19:28 41.50298 23.80569 28082 ft 441 kts 341°
2026-05-04 19:28 41.53191 23.79141 27812 ft 442 kts 341°
2026-05-04 19:28 41.56103 23.77701 27542 ft 442 kts 341°
2026-05-04 19:28 41.59056 23.76239 27267 ft 443 kts 341°
2026-05-04 19:29 41.61987 23.74789 26993 ft 454 kts 341°
2026-05-04 19:29 41.64392 23.73596 26774 ft 455 kts 341°
2026-05-04 19:29 41.67362 23.72121 26504 ft 454 kts 341°
2026-05-04 19:29 41.70288 23.70666 26239 ft 452 kts 341°
2026-05-04 19:30 41.73245 23.69195 25969 ft 450 kts 341°
2026-05-04 19:30 41.76168 23.67740 25702 ft 448 kts 341°
2026-05-04 19:30 41.79091 23.66284 25433 ft 446 kts 341°
2026-05-04 19:30 41.81986 23.64840 25165 ft 444 kts 341°
2026-05-04 19:31 41.84874 23.63397 24900 ft 442 kts 341°
2026-05-04 19:31 41.87781 23.61943 24634 ft 440 kts 341°
2026-05-04 19:31 41.90649 23.60509 24369 ft 438 kts 341°
2026-05-04 19:31 41.93467 23.59099 24110 ft 436 kts 341°
2026-05-04 19:32 41.96327 23.57666 23846 ft 435 kts 341°
2026-05-04 19:32 41.99155 23.56248 23553 ft 433 kts 341°
2026-05-04 19:32 42.01957 23.54841 23223 ft 431 kts 341°
2026-05-04 19:32 42.04741 23.53441 22811 ft 429 kts 341°
2026-05-04 19:33 42.07523 23.52041 22333 ft 426 kts 341°
2026-05-04 19:33 42.10315 23.50633 21830 ft 431 kts 341°
2026-05-04 19:33 42.13138 23.49217 21289 ft 441 kts 341°
2026-05-04 19:33 42.16009 23.47775 20740 ft 441 kts 341°
2026-05-04 19:34 42.18898 23.46318 20184 ft 438 kts 341°
2026-05-04 19:34 42.21722 23.44889 19634 ft 435 kts 341°
2026-05-04 19:34 42.24529 23.43468 19080 ft 432 kts 341°
2026-05-04 19:34 42.27373 23.42125 18506 ft 427 kts 348°
2026-05-04 19:35 42.30282 23.41742 17957 ft 420 kts
2026-05-04 19:35 42.33126 23.42419 17424 ft 415 kts 17°
2026-05-04 19:35 42.35888 23.43542 16893 ft 411 kts 18°
2026-05-04 19:35 42.38591 23.44671 16365 ft 407 kts 19°
2026-05-04 19:36 42.41267 23.45780 15839 ft 403 kts 18°
2026-05-04 19:36 42.43944 23.46875 15300 ft 399 kts 18°
2026-05-04 19:36 42.46592 23.47950 14860 ft 389 kts 18°
2026-05-04 19:36 42.49124 23.48977 14617 ft 375 kts 18°
2026-05-04 19:37 42.51590 23.49978 14165 ft 367 kts 19°
2026-05-04 19:37 42.54020 23.50967 13668 ft 361 kts 19°
2026-05-04 19:37 42.56382 23.51928 13174 ft 356 kts 19°
2026-05-04 19:37 42.58649 23.53100 12639 ft 336 kts 33°
2026-05-04 19:38 42.60219 23.55239 12124 ft 315 kts 61°
2026-05-04 19:38 42.60758 23.58013 11612 ft 302 kts 89°
2026-05-04 19:38 42.60491 23.60750 11130 ft 290 kts 97°
2026-05-04 19:38 42.60099 23.63394 10626 ft 279 kts 98°
2026-05-04 19:39 42.59805 23.65903 10078 ft 270 kts 92°
2026-05-04 19:39 42.59633 23.68438 9449 ft 267 kts 91°
2026-05-04 19:39 42.59479 23.70895 8830 ft 263 kts 91°
2026-05-04 19:39 42.59390 23.73332 8249 ft 255 kts 81°
2026-05-04 19:40 42.60031 23.75457 7684 ft 243 kts 44°
2026-05-04 19:40 42.61451 23.76541 7287 ft 235 kts 11°
2026-05-04 19:40 42.63060 23.76684 7040 ft 230 kts
2026-05-04 19:40 42.64637 23.76804 6653 ft 222 kts
2026-05-04 19:41 42.66128 23.76658 6206 ft 219 kts 338°
2026-05-04 19:41 42.67267 23.75363 5985 ft 211 kts 302°
2026-05-04 19:41 42.67700 23.73541 5966 ft 197 kts 283°
2026-05-04 19:41 42.67875 23.71688 5739 ft 199 kts 280°
2026-05-04 19:42 42.68000 23.69801 5448 ft 199 kts 278°
2026-05-04 19:42 42.68107 23.67945 5166 ft 199 kts 278°
2026-05-04 19:42 42.68211 23.66071 4884 ft 199 kts 278°
2026-05-04 19:42 42.68317 23.64195 4608 ft 199 kts 277°
2026-05-04 19:43 42.68424 23.62318 4335 ft 198 kts 277°
2026-05-04 19:43 42.68533 23.60448 4072 ft 197 kts 277°
2026-05-04 19:43 42.68635 23.58680 3897 ft 180 kts 277°
2026-05-04 19:43 42.68731 23.57031 3628 ft 171 kts 277°
2026-05-04 19:44 42.68823 23.55482 3386 ft 161 kts 277°
2026-05-04 19:44 42.68910 23.54005 3162 ft 152 kts 276°
2026-05-04 19:44 42.68996 23.52577 2978 ft 152 kts 276°
2026-05-04 19:44 42.69079 23.51182 2811 ft 144 kts 276°
2026-05-04 19:45 42.69157 23.49856 2616 ft 139 kts 275°
2026-05-04 19:45 42.69236 23.48539 2430 ft 139 kts 275°
2026-05-04 19:45 42.69312 23.47250 2249 ft 138 kts 274°
2026-05-04 19:45 42.69390 23.45947 2064 ft 138 kts 274°
2026-05-04 19:46 42.69467 23.44646 1879 ft 138 kts 274°
2026-05-04 19:46 42.69558 23.43356 1753 ft 133 kts 274°
2026-05-04 19:46 42.69610 23.42265 1753 ft 101 kts 274°
2026-05-04 19:46 42.69662 23.41415 1753 ft 79 kts 275°
2026-05-04 19:47 42.69621 23.40774 1753 ft 63 kts 244°
2026-05-04 19:47 42.69418 23.40452 1753 ft 37 kts 194°
2026-05-04 19:47 42.69210 23.40367 1753 ft 17 kts 197°
2026-05-04 19:47 42.69157 23.40340 1753 ft 4 kts 241°
2026-05-04 19:48 42.69154 23.40290 1753 ft 6 kts 281°
2026-05-04 19:48 42.69167 23.40228 1753 ft 7 kts 287°
2026-05-04 19:48 42.69183 23.40156 1753 ft 8 kts 287°
2026-05-04 19:48 42.69202 23.40074 1753 ft 9 kts 287°
2026-05-04 19:49 42.69188 23.39998 1753 ft 7 kts 211°
2026-05-04 19:49 42.69147 23.39980 1753 ft 4 kts 197°
2026-05-04 19:49 42.69143 23.39979 1753 ft 0 kts 197°